TimePST,TemperatureF,Dew PointF,Humidity,Sea Level PressureIn,VisibilityMPH,Wind Direction,Wind SpeedMPH,Gust SpeedMPH,PrecipitationIn,Events,Conditions,WindDirDegrees,DateUTC
12:56 AM,52.0,46.9,83,29.86,9.0,South,10.4,-,0.08,Rain,Light Rain,170,2014-03-03 08:56:00
1:56 AM,52.0,46.9,83,29.84,10.0,South,8.1,-,0.02,Rain,Light Rain,170,2014-03-03 09:56:00
2:56 AM,51.1,48.0,89,29.82,6.0,South,6.9,-,0.08,Rain,Rain,170,2014-03-03 10:56:00
3:56 AM,50.0,48.0,93,29.80,9.0,South,4.6,-,0.08,Rain,Light Rain,170,2014-03-03 11:56:00
4:56 AM,52.0,48.0,86,29.77,10.0,SSE,15.0,-,0.05,Rain,Light Rain,160,2014-03-03 12:56:00
5:56 AM,52.0,48.0,86,29.77,10.0,South,12.7,21.9,0.01,Rain,Light Rain,170,2014-03-03 13:56:00
6:56 AM,52.0,48.9,89,29.77,10.0,South,13.8,-,0.01,Rain,Light Rain,180,2014-03-03 14:56:00
7:04 AM,52.0,48.9,89,29.77,10.0,South,18.4,-,0.00,Rain,Light Rain,180,2014-03-03 15:04:00
7:10 AM,52.0,48.9,89,29.77,10.0,South,18.4,25.3,0.00,Rain,Light Rain,180,2014-03-03 15:10:00
7:52 AM,53.6,48.2,82,29.77,10.0,South,15.0,-,0.00,,Overcast,180,2014-03-03 15:52:00
7:56 AM,53.1,48.9,86,29.77,10.0,South,15.0,-,0.00,,Overcast,180,2014-03-03 15:56:00
8:56 AM,53.1,50.0,89,29.79,10.0,South,13.8,-,0.00,Rain,Light Rain,190,2014-03-03 16:56:00
9:56 AM,53.1,50.0,89,29.80,6.0,South,19.6,-,0.05,Rain,Rain,190,2014-03-03 17:56:00
10:56 AM,55.0,51.1,86,29.81,6.0,South,17.3,-,0.00,Rain,Light Rain,180,2014-03-03 18:56:00
11:23 AM,55.0,52.0,89,29.81,3.0,SSW,10.4,-,0.01,Rain,Light Rain,200,2014-03-03 19:23:00
11:56 AM,55.0,52.0,89,29.83,9.0,SSW,9.2,-,0.02,Rain,Light Rain,210,2014-03-03 19:56:00
12:56 PM,60.1,52.0,75,29.82,10.0,SW,15.0,25.3,0.00,,Mostly Cloudy,220,2014-03-03 20:56:00
1:56 PM,61.0,48.9,64,29.83,10.0,WSW,16.1,27.6,N/A,,Mostly Cloudy,240,2014-03-03 21:56:00
2:56 PM,59.0,48.0,67,29.84,10.0,WSW,17.3,24.2,N/A,,Mostly Cloudy,240,2014-03-03 22:56:00
3:56 PM,57.9,46.9,67,29.85,10.0,SW,13.8,-,N/A,,Mostly Cloudy,220,2014-03-03 23:56:00
4:56 PM,57.0,46.9,69,29.88,10.0,SSW,13.8,-,N/A,,Mostly Cloudy,210,2014-03-04 00:56:00
5:56 PM,54.0,46.0,75,29.91,10.0,SSW,10.4,-,N/A,,Clear,200,2014-03-04 01:56:00
6:56 PM,53.1,46.0,77,29.94,10.0,SSW,6.9,-,N/A,,Clear,210,2014-03-04 02:56:00
7:56 PM,52.0,46.0,80,29.95,10.0,SSW,8.1,-,N/A,,Clear,210,2014-03-04 03:56:00
8:56 PM,48.9,45.0,86,29.97,10.0,SW,5.8,-,N/A,,Partly Cloudy,230,2014-03-04 04:56:00
9:56 PM,46.0,44.1,93,29.97,10.0,South,4.6,-,N/A,,Clear,180,2014-03-04 05:56:00
10:56 PM,45.0,43.0,93,29.99,2.5,Calm,Calm,-,N/A,,Clear,0,2014-03-04 06:56:00
11:12 PM,45.0,44.1,97,29.98,10.0,Calm,Calm,-,N/A,,Clear,0,2014-03-04 07:12:00
11:56 PM,42.1,42.1,100,29.99,10.0,SSE,3.5,-,N/A,,Partly Cloudy,160,2014-03-04 07:56:00